Weather Roundup
Issued by NWS Springfield, MO

Home | Current Version | Previous Version | Text Only | Print | Product List | Glossary On
Versions: 1 2 3 4 5 6 7 8 9 10 11 12 13 14 15 16 17 18 19 20 21 22 23 24 25 26 27 28 29 30 31 32 33 34 35 36 37 38 39 40 41 42 43 44 45 46 47 48 49 50
000
NZUS99 KSGF 221259
HRRSGF

HOURLY WEATHER
NATIONAL WEATHER SERVICE SPRINGFIELD MO
800 AM CDT MON SEP 22 2014

......SGF CWA......

CITY           SKY/WX    TMP DP  RH WIND       PRES   REMARKS
SPRINGFIELD    SUNNY     52  48  86 CALM      30.29R
JOPLIN         CLEAR     52  50  93 NE6       30.30R
WEST PLAINS    SUNNY     54  49  83 CALM      30.29R
ROLLA          SUNNY     53  50  89 NW3       30.28R
OSAGE BEACH    SUNNY     50  46  87 CALM      30.30R
BRANSON        SUNNY     52  50  93 CALM      30.30R

......SURROUNDING SGF CWA......

CITY           SKY/WX    TMP DP  RH WIND       PRES   REMARKS
CHANUTE        CLEAR     51  50  96 N3        30.32R
PARSONS        CLEAR     49  47  93 CALM      30.32R
COFFEYVILLE    CLEAR     52  50  93 N3        30.30
EMPORIA        CLEAR     50  49  96 CALM      30.32R
SILOAM SPRINGS SUNNY     54  45  71 CALM      30.30R
HARRISON AR    SUNNY     54  51  90 CALM      30.28R
NEAR YELLVILLE SUNNY     55  48  76 CALM      30.27S

......KANSAS AND MISSOURI......

CITY           SKY/WX    TMP DP  RH WIND       PRES   REMARKS
KANSAS CTY INT CLEAR     50  48  93 NW7       30.32R
DOWNTOWN KC    CLEAR     53  51  93 CALM      30.32R
COLUMBIA       SUNNY     52  50  93 NW6       30.30R
SEDALIA        SUNNY     53  49  86 N3        30.32R
ST JOSEPH      FOG       45  45 100 N3        30.33R VSB 3/4
ST LOUIS       SUNNY     57  50  77 CALM      30.28R
SPIRIT OF STL  SUNNY     53  51  93 CALM      30.27R
KIRKSVILLE     SUNNY     51  48  89 CALM      30.32R
WICHITA        PTCLDY    57  48  72 NE5       30.32R
TOPEKA         CLEAR     49  49 100 CALM      30.33R
OLATHE         CLEAR     53  50  89 NW3       30.31R

......TENNESSEE......

CITY           SKY/WX    TMP DP  RH WIND       PRES   REMARKS
MEMPHIS        SUNNY     63  52  67 NE9       30.20R
NASHVILLE      SUNNY     60  52  74 N10       30.18R

......ARKANSAS.......

CITY           SKY/WX    TMP DP  RH WIND       PRES   REMARKS
FAYETTEVILLE   SUNNY     49  49 100 CALM      30.29R
FT SMITH       SUNNY     58  54  86 CALM      30.26R
LITTLE ROCK    SUNNY     63  50  62 N7        30.23R

......OKLAHOMA.......

CITY           SKY/WX    TMP DP  RH WIND       PRES   REMARKS
TULSA          CLEAR     54  51  90 NW3       30.29R
PONCA CITY     CLEAR     50  46  86 N3        30.30R
MCALESTER      CLEAR     61  53  75 NE5       30.26R
OKLAHOMA CITY  CLEAR     59  49  69 NE7       30.28R

......IOWA............

CITY           SKY/WX    TMP DP  RH WIND       PRES   REMARKS
DES MOINES     CLEAR     50  47  89 NW5       30.31S
QUAD CITIES    SUNNY     46  44  93 CALM      30.30R

......ILLINOIS........

CITY           SKY/WX    TMP DP  RH WIND       PRES   REMARKS
QUINCY         SUNNY     51  48  89 N3        30.29R
CHICAGO        MOSUNNY   48  40  73 N6        30.26R




USA.gov is the U.S. government's official web portal to all federal, state and local government web resources and services.